Van, Turkey

10:11 PM +03 on April 27, 2017 (GMT +0300)
Van

Weather History for LTCI - December, 2012

Change the Weather History Date:

Tuesday, December 18, 2012

  Actual Average Record
Temperature  
Mean Temperature 31 °F -  
Max Temperature 38 °F 36 °F 50 °F (1998)
Min Temperature 24 °F 20 °F 0 °F (2004)
Degree Days  
Heating Degree Days 34    
Moisture  
Dew Point 26 °F    
Average Humidity 69    
Maximum Humidity 93    
Minimum Humidity 52    
Precipitation  
Precipitation 0.04 in 0.04 in - ()
Sea Level Pressure  
Sea Level Pressure 30.11 in    
Wind  
Wind Speed 6 mph ()    
Max Wind Speed 14 mph    
Max Gust Speed -    
Visibility 5.5 miles    
Events Snow    
Averages and records for this station are not official NWS values.
T = Trace of Precipitation, MM = Missing Value Source: Averaged Metar Reports

Daily Weather History Graph

Daily Weather History Graph

Search for Another Location

Airport or City:

Trip Planner

Search our weather history database for the weather conditions in past years. The results will help you decide how hot, cold, wet, or windy it might be!

Date:

Astronomy

Dec. 18, 2012 Rise Set
Actual Time 6:18 AM EET 3:48 PM EET
Civil Twilight 5:49 AM EET 4:17 PM EET
Nautical Twilight 5:15 AM EET 4:51 PM EET
Astronomical Twilight 4:43 AM EET 5:23 PM EET
Moon 9:51 AM EET (12/18) 9:46 PM EET (12/18)
Length of Visible Light 10h 28m
Length of Day
9h 29m
Waxing Crescent, 31% of the Moon is Illuminated
Dec 18
Waxing Crescent
Dec 20
First Quarter
Dec 28
Full
Jan 5
Last Quarter
Jan 11
New

Hourly Weather History & Observations

Time (EET) Temp. Windchill Dew Point Humidity Pressure Visibility Wind Dir Wind Speed Gust Speed Precip Events Conditions
2:50 AM 24.8 °F - 23.0 °F 93% 30.06 in 3.7 mi Variable 2.3 mph - N/A   Mostly Cloudy
3:50 AM 28.4 °F 22.2 °F 24.8 °F 86% 30.06 in 2.5 mi NE 5.8 mph - N/A Snow Light Snow
4:50 AM 30.2 °F 22.6 °F 26.6 °F 86% 30.09 in 2.5 mi NE 8.1 mph - N/A Snow Light Snow
5:50 AM 30.2 °F - 26.6 °F 86% 30.09 in 4.3 mi East 2.3 mph - N/A   Mostly Cloudy
6:50 AM 30.2 °F - 26.6 °F 86% 30.09 in 4.3 mi Variable 2.3 mph - N/A   Mostly Cloudy
7:50 AM 33.8 °F 24.3 °F 24.8 °F 70% 30.09 in 5.0 mi SE 13.8 mph - N/A   Mostly Cloudy
8:00 AM 33 °F - 24 °F 59%  in 5 mi SE 13.8 mph - -   Haze
8:50 AM 35.6 °F 30.7 °F 24.8 °F 65% 30.12 in 6.2 mi SSE 5.8 mph - N/A   Mostly Cloudy
9:50 AM 37.4 °F 30.3 °F 24.8 °F 60% 30.12 in 6.2 mi SSE 10.4 mph - N/A   Mostly Cloudy
10:50 AM 37.4 °F 30.3 °F 26.6 °F 65% 30.12 in 6.2 mi South 10.4 mph - N/A   Mostly Cloudy
11:50 AM 39.2 °F - 26.6 °F 61% 30.09 in 6.2 mi Variable 1.2 mph - N/A   Mostly Cloudy
12:50 PM 37.4 °F 32.1 °F 26.6 °F 65% 30.12 in 6.2 mi North 6.9 mph - N/A   Mostly Cloudy
1:50 PM 35.6 °F 29.9 °F 28.4 °F 75% 30.12 in 5.0 mi NNE 6.9 mph - N/A   Mostly Cloudy
2:00 PM 36 °F - 28 °F 63%  in 5 mi NNE 6.9 mph - -   Mist
2:50 PM 37.4 °F 33.8 °F 26.6 °F 65% 30.12 in 6.2 mi NE 4.6 mph - N/A   Mostly Cloudy
3:50 PM 35.6 °F 31.7 °F 26.6 °F 70% 30.12 in 6.2 mi SSE 4.6 mph - N/A   Mostly Cloudy
4:50 PM 37.4 °F 31.4 °F 24.8 °F 60% 30.12 in 6.2 mi SSE 8.1 mph - N/A   Mostly Cloudy
5:50 PM 37.4 °F 30.3 °F 26.6 °F 65% 30.12 in 6.2 mi South 10.4 mph - N/A   Mostly Cloudy
6:50 PM 37.4 °F 28.9 °F 26.6 °F 65% 30.12 in 6.2 mi South 13.8 mph - N/A   Mostly Cloudy
7:50 PM 35.6 °F 29.2 °F 24.8 °F 65% 30.12 in 6.2 mi SE 8.1 mph - N/A   Mostly Cloudy
8:00 PM 36 °F - 25 °F 52%  in 7 mi SE 8.1 mph - -   Partly Cloudy
8:50 PM 37.4 °F 28.9 °F 24.8 °F 60% 30.12 in 6.2 mi SSE 13.8 mph - N/A   Mostly Cloudy
9:50 PM 37.4 °F 29.8 °F 26.6 °F 65% 30.15 in 6.2 mi SSE 11.5 mph - N/A   Mostly Cloudy
10:50 PM 37.4 °F 30.3 °F 26.6 °F 65% 30.15 in 6.2 mi South 10.4 mph - N/A   Mostly Cloudy
11:50 PM 37.4 °F 30.3 °F 26.6 °F 65% 30.15 in 6.2 mi South 10.4 mph - N/A   Mostly Cloudy